Regional Weather Roundup
Issued by NWS Green Bay, WI

Home | Current Version | Previous Version | Text Only | Print | Product List | Glossary On
Versions: 1 2 3 4 5 6 7 8 9 10 11 12 13 14 15 16 17 18 19 20 21 22 23 24 25 26 27 28 29 30 31 32 33 34 35 36 37 38 39 40 41 42 43 44 45 46 47 48 49 50
000
ASUS43 KGRB 032211
RWRGRB

NORTH-CENTRAL AND NORTHEAST WISCONSIN REGIONAL WEATHER ROUNDUP
NATIONAL WEATHER SERVICE GREEN BAY WI
500 PM CDT THU SEP 03 2015

WIZ005-009-010>012-018-019-032300-
NORTH CENTRAL WISCONSIN

CITY           SKY/WX    TMP DP  RH WIND       PRES   REMARKS
IRONWOOD       SUNNY     73  64  73 NE5       29.94F
MANITOWISH WTR MOSUNNY   78  64  62 E3        29.98F
ARBOR VITAE    SUNNY     80  64  57 SE9       29.98F
EAGLE RIVER    CLOUDY    76  62  59 E6        29.99F
LAND O LAKES   SUNNY     79  62  57 E7        30.00F
RHINELANDER    PTSUNNY   77  64  64 E10       30.00R
PHILLIPS       MOSUNNY   80  65  61 E6        29.96F
ANTIGO         MOSUNNY   74  65  73 E8        30.00R
TOMAHAWK       PTSUNNY   76  64  66 E5        29.98S
MERRILL        PTSUNNY   77  67  70 SE5       29.98R
$$

WIZ013-073-032300-
NORTHEAST WISCONSIN

CITY           SKY/WX    TMP DP  RH WIND       PRES   REMARKS
IRON MOUNTAIN  MOSUNNY   79  64  60 NE5       29.97R
MARINETTE      SUNNY     73  64  73 E9        29.93S
OCONTO         SUNNY     74  68  81 E6        29.93S
$$

WIZ017-030-035>037-045-032300-
CENTRAL WISCONSIN

CITY           SKY/WX    TMP DP  RH WIND       PRES   REMARKS
MEDFORD        PTSUNNY   74  65  73 SE3       29.98S
WAUSAU         PTSUNNY   77  65  66 E8        29.95S
MOSINEE        PTSUNNY   75  66  73 SE5       29.98R
MARSHFIELD     SUNNY     79  64  60 NE10      29.96S
WISC RAPIDS    MOSUNNY   80  65  59 E9        29.95S
STEVENS POINT  CLOUDY    73  65  75 NE9       29.97S
WAUPACA        CLOUDY    75  69  80 N5        29.96S
SHAWANO        NOT AVBL
CLINTONVILLE   CLOUDY    75  64  69 N5        29.95S
WAUTOMA        PTSUNNY   78  67  68 NE9       29.94S
$$

WIZ038-039-048-051-032300-
FOX VALLEY

CITY           SKY/WX    TMP DP  RH WIND       PRES   REMARKS
NWS GREEN BAY  PTSUNNY   75  68  78 N7        29.94S
APPLETON       PTSUNNY   73  63  68 N9        29.94S
OSHKOSH        CLOUDY    74  66  76 NE9       29.94S
FOND DU LAC    PTSUNNY   76  67  73 NE8       29.94S
$$

WIZ022-050-052-032300-
EAST CENTRAL WISCONSIN

CITY           SKY/WX    TMP DP  RH WIND       PRES   REMARKS
EPHRAIM        FAIR      71  64  81 N9        29.93S
STURGEON BAY   SUNNY     73  64  73 N14G20    29.96R
MANITOWOC      CLOUDY    72  67  84 MISG      29.93S
SHEBOYGAN      MOSUNNY   77  66  68 NW10      29.92F
$$

LMZ563-521-522-541>543-032300-
LAKESHORE

STATION/POSITION TIME  TEMP    WIND        PRES    VSBY  WAVE
                       AIR SEA DIR/SP/G                  HT/PER
                 (UTC) (F)     (DEG/KT/KT) (MB)    (MI)  (FT/S)
SHEBOYGAN LKSHOR 2200   60      40/ 10/ 11 1013.4R
KEWAUNEE LKSHORE 2100   65      20/  6/ 11 1012.7R
ALGOMA MARINA    2114           70/ 11/ 13   N/A
NORTHPORT PIER   2100   72     320/  3/  5 1013.9S
N MID LAKE BUOY  2150   68 67  350/  6/  6 1013.1S         1/ 4
S GREEN BAY BUOY 2200   68 67   50/  8/ 10 1015.1R
SISTER BAY LKSHO 2111   73     350/ 13/ 15   N/A
CHAMBERS ISLAND  2100   69      30/  9/ 10 1013.5F
MENOMINEE LKSHOR 2100   65      30/  4/  6 1012.7F
$$


USA.gov is the U.S. government's official web portal to all federal, state and local government web resources and services.